ICE562 BIKF-LIRF

Flight info

Callsign ICE562
Flight time 4h 24m
Altitude 35000
Route OSKUM3A OSKUM DCT 63N010W DCT GUNPA/N0453F350 DCT PIXEG DCT KUGAL DCT NOMKA/N0454F370 DCT EXITI DCT BERAS M736 LIZUM N503 LIKDA DCT BAKOR DCT VESAL DCT KOPER DCT LUMAV DCT VABMO DCT BAGNO DCT GAVRA DCT RITEB
Aircraft A21N/M-SDE2E3FGHIRWXY/LB1

Departure

Time 2026-05-08 02:26
Airport Keflavik International Airport (BIKF)

Arrival

Time 2026-05-08 06:51
Airport Rome–Fiumicino Leonardo da Vinci International Airport (LIRF)
Time Latitude Longitude Altitude Speed Heading
2026-05-08 02:09 63.99372 -22.62548 148 ft 0 kts 117°
2026-05-08 02:14 63.99377 -22.62570 148 ft 4 kts 118°
2026-05-08 02:15 63.99391 -22.62622 148 ft 4 kts 128°
2026-05-08 02:15 63.99410 -22.62664 149 ft 4 kts 150°
2026-05-08 02:15 63.99431 -22.62675 148 ft 2 kts 202°
2026-05-08 02:15 63.99433 -22.62673 148 ft 0 kts 204°
2026-05-08 02:18 63.99432 -22.62673 148 ft 1 kts 204°
2026-05-08 02:19 63.99418 -22.62688 149 ft 4 kts 204°
2026-05-08 02:19 63.99380 -22.62728 148 ft 8 kts 204°
2026-05-08 02:19 63.99305 -22.62744 148 ft 13 kts 179°
2026-05-08 02:19 63.99228 -22.62684 148 ft 13 kts 170°
2026-05-08 02:20 63.99172 -22.62584 148 ft 13 kts 92°
2026-05-08 02:20 63.99173 -22.62344 148 ft 17 kts 90°
2026-05-08 02:20 63.99173 -22.62040 148 ft 20 kts 89°
2026-05-08 02:20 63.99173 -22.61715 152 ft 21 kts 90°
2026-05-08 02:21 63.99172 -22.61376 160 ft 22 kts 90°
2026-05-08 02:21 63.99172 -22.61063 167 ft 14 kts 89°
2026-05-08 02:21 63.99118 -22.60939 172 ft 19 kts 174°
2026-05-08 02:21 63.98936 -22.60940 176 ft 28 kts 180°
2026-05-08 02:22 63.98742 -22.60940 172 ft 28 kts 180°
2026-05-08 02:22 63.98540 -22.60940 175 ft 29 kts 180°
2026-05-08 02:22 63.98332 -22.60940 171 ft 30 kts 180°
2026-05-08 02:22 63.98118 -22.60940 172 ft 31 kts 180°
2026-05-08 02:23 63.97899 -22.60941 175 ft 32 kts 180°
2026-05-08 02:23 63.97671 -22.60942 174 ft 33 kts 180°
2026-05-08 02:23 63.97437 -22.60943 170 ft 34 kts 180°
2026-05-08 02:23 63.97216 -22.60942 163 ft 25 kts 179°
2026-05-08 02:24 63.97039 -22.60939 157 ft 26 kts 180°
2026-05-08 02:24 63.96859 -22.60939 150 ft 26 kts 180°
2026-05-08 02:24 63.96676 -22.60941 144 ft 24 kts 180°
2026-05-08 02:24 63.96529 -22.60942 140 ft 18 kts 180°
2026-05-08 02:25 63.96460 -22.60811 143 ft 15 kts 91°
2026-05-08 02:25 63.96460 -22.60602 149 ft 10 kts 89°
2026-05-08 02:25 63.96504 -22.60546 151 ft 9 kts
2026-05-08 02:25 63.96697 -22.60543 159 ft 57 kts
2026-05-08 02:26 63.97311 -22.60542 174 ft 118 kts 360°
2026-05-08 02:26 63.98328 -22.60543 251 ft 165 kts 360°
2026-05-08 02:26 63.99465 -22.60562 1138 ft 165 kts 360°
2026-05-08 02:26 64.00611 -22.60615 2066 ft 170 kts 359°
2026-05-08 02:27 64.01840 -22.60629 2581 ft 184 kts
2026-05-08 02:27 64.03171 -22.60605 3142 ft 196 kts
2026-05-08 02:27 64.04538 -22.60332 3830 ft 199 kts 15°
2026-05-08 02:27 64.05746 -22.58755 4536 ft 207 kts 42°
2026-05-08 02:28 64.06452 -22.55690 4902 ft 237 kts 76°
2026-05-08 02:28 64.06505 -22.51734 5380 ft 257 kts 87°
2026-05-08 02:28 64.06429 -22.47605 6105 ft 262 kts 88°
2026-05-08 02:28 64.06348 -22.43409 6875 ft 267 kts 91°
2026-05-08 02:29 64.05847 -22.39270 7592 ft 277 kts 112°
2026-05-08 02:29 64.04893 -22.35401 8345 ft 281 kts 117°
2026-05-08 02:29 64.03880 -22.31549 9101 ft 284 kts 117°
2026-05-08 02:29 64.02870 -22.27652 9841 ft 287 kts 117°
2026-05-08 02:30 64.01858 -22.23690 10499 ft 293 kts 117°
2026-05-08 02:30 64.00814 -22.19551 10824 ft 310 kts 117°
2026-05-08 02:30 63.99714 -22.15164 11091 ft 328 kts 117°
2026-05-08 02:30 63.98553 -22.10529 11342 ft 345 kts 117°
2026-05-08 02:31 63.97329 -22.05660 11603 ft 363 kts 117°
2026-05-08 02:31 63.96047 -22.00576 11845 ft 379 kts 117°
2026-05-08 02:31 63.94723 -21.95336 12072 ft 394 kts 117°
2026-05-08 02:31 63.93335 -21.89861 12334 ft 404 kts 117°
2026-05-08 02:32 63.91922 -21.84307 12766 ft 407 kts 117°
2026-05-08 02:32 63.90496 -21.78706 13230 ft 410 kts 117°
2026-05-08 02:32 63.89061 -21.73078 13684 ft 412 kts 117°
2026-05-08 02:32 63.87618 -21.67435 14105 ft 415 kts 117°
2026-05-08 02:33 63.86160 -21.61748 14461 ft 418 kts 117°
2026-05-08 02:33 63.84695 -21.56040 14832 ft 420 kts 117°
2026-05-08 02:33 63.83218 -21.50298 15264 ft 423 kts 117°
2026-05-08 02:33 63.81731 -21.44534 15791 ft 425 kts 117°
2026-05-08 02:34 63.80233 -21.38734 16313 ft 428 kts 117°
2026-05-08 02:34 63.78717 -21.32879 16839 ft 431 kts 117°
2026-05-08 02:34 63.77245 -21.27035 17316 ft 434 kts 114°
2026-05-08 02:34 63.76156 -21.20703 17795 ft 432 kts 102°
2026-05-08 02:35 63.75614 -21.14024 18280 ft 432 kts 94°
2026-05-08 02:35 63.75214 -21.07261 18711 ft 435 kts 94°
2026-05-08 02:35 63.74817 -21.00465 19092 ft 438 kts 94°
2026-05-08 02:35 63.74401 -20.93621 19462 ft 441 kts 94°
2026-05-08 02:36 63.73970 -20.86753 19823 ft 444 kts 94°
2026-05-08 02:36 63.73529 -20.79822 20179 ft 446 kts 94°
2026-05-08 02:36 63.73084 -20.72881 20516 ft 448 kts 94°
2026-05-08 02:36 63.72630 -20.65907 20838 ft 451 kts 95°
2026-05-08 02:37 63.72168 -20.58878 21187 ft 453 kts 95°
2026-05-08 02:37 63.71702 -20.51834 21586 ft 455 kts 95°
2026-05-08 02:37 63.71255 -20.44761 21958 ft 456 kts 92°
2026-05-08 02:37 63.71001 -20.37635 22274 ft 456 kts 90°
2026-05-08 02:38 63.70784 -20.30471 22581 ft 459 kts 90°
2026-05-08 02:38 63.70561 -20.23359 22905 ft 461 kts 90°
2026-05-08 02:38 63.70325 -20.16130 23214 ft 463 kts 90°
2026-05-08 02:38 63.70087 -20.08885 23523 ft 465 kts 90°
2026-05-08 02:39 63.69843 -20.01569 23846 ft 468 kts 90°
2026-05-08 02:39 63.69598 -19.94230 24132 ft 470 kts 90°
2026-05-08 02:39 63.69347 -19.86880 24418 ft 472 kts 90°
2026-05-08 02:39 63.69087 -19.79473 24708 ft 474 kts 90°
2026-05-08 02:40 63.68826 -19.72049 24988 ft 476 kts 90°
2026-05-08 02:40 63.68560 -19.64593 25414 ft 475 kts 90°
2026-05-08 02:40 63.68290 -19.57184 25822 ft 474 kts 90°
2026-05-08 02:40 63.68017 -19.49792 26189 ft 473 kts 90°
2026-05-08 02:41 63.67735 -19.42396 26538 ft 474 kts 91°
2026-05-08 02:41 63.67444 -19.35098 26869 ft 473 kts 91°
2026-05-08 02:41 63.67150 -19.27692 27232 ft 473 kts 91°
2026-05-08 02:41 63.66859 -19.20317 27583 ft 473 kts 91°
2026-05-08 02:42 63.66566 -19.12936 27927 ft 473 kts 91°
2026-05-08 02:42 63.66272 -19.05571 28275 ft 473 kts 91°
2026-05-08 02:42 63.65972 -18.98180 28622 ft 472 kts 91°
2026-05-08 02:42 63.65671 -18.90815 28956 ft 472 kts 91°
2026-05-08 02:43 63.65367 -18.83458 29302 ft 472 kts 91°
2026-05-08 02:43 63.65056 -18.76113 29674 ft 471 kts 91°
2026-05-08 02:43 63.64744 -18.68855 29995 ft 471 kts 91°
2026-05-08 02:43 63.64422 -18.61440 30292 ft 471 kts 91°
2026-05-08 02:44 63.64100 -18.54101 30516 ft 471 kts 91°
2026-05-08 02:44 63.63778 -18.46861 30710 ft 471 kts 91°
2026-05-08 02:44 63.63448 -18.39533 30936 ft 471 kts 91°
2026-05-08 02:44 63.63116 -18.32211 31131 ft 471 kts 92°
2026-05-08 02:45 63.62778 -18.24866 31331 ft 471 kts 92°
2026-05-08 02:45 63.62440 -18.17540 31530 ft 472 kts 92°
2026-05-08 02:45 63.62096 -18.10204 31720 ft 472 kts 92°
2026-05-08 02:45 63.61744 -18.02847 31911 ft 472 kts 92°
2026-05-08 02:46 63.61394 -17.95497 32117 ft 472 kts 93°
2026-05-08 02:46 63.61043 -17.88148 32274 ft 473 kts 93°
2026-05-08 02:46 63.60683 -17.80795 32437 ft 473 kts 93°
2026-05-08 02:46 63.60321 -17.73453 32610 ft 473 kts 93°
2026-05-08 02:47 63.59953 -17.66096 32783 ft 474 kts 94°
2026-05-08 02:47 63.59580 -17.58747 32948 ft 474 kts 94°
2026-05-08 02:47 63.59200 -17.51394 33112 ft 474 kts 94°
2026-05-08 02:47 63.58820 -17.44042 33266 ft 474 kts 94°
2026-05-08 02:48 63.58439 -17.36676 33429 ft 474 kts 94°
2026-05-08 02:48 63.58059 -17.29417 33568 ft 474 kts 94°
2026-05-08 02:48 63.57669 -17.22063 33712 ft 474 kts 94°
2026-05-08 02:48 63.57271 -17.14713 33869 ft 474 kts 95°
2026-05-08 02:49 63.56871 -17.07359 33988 ft 475 kts 95°
2026-05-08 02:49 63.56469 -16.99992 34111 ft 475 kts 95°
2026-05-08 02:49 63.55653 -16.85279 34309 ft 475 kts 95°
2026-05-08 02:50 63.54827 -16.70537 34501 ft 476 kts 95°
2026-05-08 02:50 63.53979 -16.55820 34683 ft 476 kts 95°
2026-05-08 02:51 63.53108 -16.41111 34850 ft 476 kts 95°
2026-05-08 02:51 63.52236 -16.26486 35006 ft 476 kts 95°
2026-05-08 02:52 63.51337 -16.11779 35144 ft 476 kts 96°
2026-05-08 02:52 63.50425 -15.97073 35142 ft 476 kts 96°
2026-05-08 02:53 63.49502 -15.82384 35126 ft 476 kts 96°
2026-05-08 02:53 63.48563 -15.67705 35124 ft 476 kts 95°
2026-05-08 02:54 63.47616 -15.53048 35119 ft 476 kts 95°
2026-05-08 02:54 63.46649 -15.38386 35117 ft 477 kts 96°
2026-05-08 02:55 63.45161 -15.16330 35116 ft 477 kts 96°
2026-05-08 02:56 63.44163 -15.01743 35099 ft 477 kts 96°
2026-05-08 02:56 63.43134 -14.87062 35099 ft 479 kts 96°
2026-05-08 02:57 63.42095 -14.72391 35087 ft 478 kts 96°
2026-05-08 02:57 63.41035 -14.57731 35092 ft 476 kts 97°
2026-05-08 02:58 63.39971 -14.43118 35080 ft 477 kts 97°
2026-05-08 02:58 63.39079 -14.30991 35069 ft 477 kts 97°
2026-05-08 02:59 63.37796 -14.14015 35049 ft 476 kts 98°
2026-05-08 02:59 63.36682 -13.99451 35049 ft 477 kts 98°
2026-05-08 03:00 63.35736 -13.87258 35048 ft 477 kts 98°
2026-05-08 03:00 63.34609 -13.72793 35036 ft 477 kts 99°
2026-05-08 03:01 63.33464 -13.58218 35023 ft 478 kts 99°
2026-05-08 03:01 63.32294 -13.43673 35003 ft 478 kts 99°
2026-05-08 03:02 63.31112 -13.29135 35000 ft 477 kts 99°
2026-05-08 03:02 63.29916 -13.14600 34982 ft 477 kts 99°
2026-05-08 03:03 63.28706 -13.00109 34986 ft 478 kts 100°
2026-05-08 03:03 63.27473 -12.85642 34965 ft 476 kts 100°
2026-05-08 03:04 63.26231 -12.71188 34948 ft 476 kts 101°
2026-05-08 03:04 63.24977 -12.56730 34944 ft 477 kts 101°
2026-05-08 03:05 63.23714 -12.42401 34924 ft 476 kts 101°
2026-05-08 03:05 63.22433 -12.27975 34919 ft 476 kts 101°
2026-05-08 03:06 63.21137 -12.13581 34882 ft 476 kts 101°
2026-05-08 03:06 63.19824 -11.99206 34879 ft 476 kts 102°
2026-05-08 03:07 63.18490 -11.84824 34868 ft 476 kts 102°
2026-05-08 03:07 63.17150 -11.70473 34865 ft 477 kts 102°
2026-05-08 03:08 63.15791 -11.56119 34862 ft 476 kts 102°
2026-05-08 03:08 63.14418 -11.41783 34828 ft 476 kts 102°
2026-05-08 03:09 63.13032 -11.27499 34824 ft 475 kts 103°
2026-05-08 03:09 63.11636 -11.13241 34805 ft 474 kts 103°
2026-05-08 03:10 63.10227 -10.98999 34803 ft 474 kts 103°
2026-05-08 03:10 63.08800 -10.84787 34782 ft 475 kts 103°
2026-05-08 03:11 63.07367 -10.70583 34759 ft 474 kts 103°
2026-05-08 03:11 63.05915 -10.56388 34742 ft 474 kts 103°
2026-05-08 03:12 63.04459 -10.42314 34738 ft 474 kts 104°
2026-05-08 03:12 63.02983 -10.28152 34744 ft 474 kts 104°
2026-05-08 03:13 63.01487 -10.13994 34720 ft 474 kts 104°
2026-05-08 03:13 62.99938 -9.99896 34697 ft 474 kts 108°
2026-05-08 03:14 62.97869 -9.86146 34679 ft 473 kts 110°
2026-05-08 03:14 62.95751 -9.72469 34675 ft 472 kts 111°
2026-05-08 03:15 62.93627 -9.58859 34651 ft 471 kts 111°
2026-05-08 03:15 62.91493 -9.45276 34635 ft 471 kts 111°
2026-05-08 03:16 62.89347 -9.31698 34631 ft 471 kts 111°
2026-05-08 03:16 62.87190 -9.18151 34611 ft 471 kts 111°
2026-05-08 03:17 62.85012 -9.04621 34612 ft 471 kts 111°
2026-05-08 03:17 62.82822 -8.91124 34585 ft 470 kts 112°
2026-05-08 03:18 62.80626 -8.77688 34589 ft 469 kts 112°
2026-05-08 03:18 62.78437 -8.64346 34581 ft 469 kts 112°
2026-05-08 03:19 62.76220 -8.50939 34582 ft 469 kts 112°
2026-05-08 03:19 62.73995 -8.37554 34576 ft 469 kts 112°
2026-05-08 03:20 62.71750 -8.24173 34578 ft 469 kts 112°
2026-05-08 03:20 62.69491 -8.10836 34578 ft 469 kts 112°
2026-05-08 03:21 62.67226 -7.97513 34577 ft 469 kts 112°
2026-05-08 03:21 62.64955 -7.84208 34570 ft 469 kts 112°
2026-05-08 03:22 62.62669 -7.70926 34569 ft 469 kts 112°
2026-05-08 03:22 62.60357 -7.57662 34567 ft 469 kts 113°
2026-05-08 03:23 62.58038 -7.44403 34571 ft 470 kts 113°
2026-05-08 03:23 62.55712 -7.31172 34557 ft 468 kts 114°
2026-05-08 03:24 62.53387 -7.18105 34562 ft 468 kts 114°
2026-05-08 03:24 62.51017 -7.04971 34566 ft 468 kts 114°
2026-05-08 03:25 62.48655 -6.91844 34567 ft 468 kts 114°
2026-05-08 03:25 62.46282 -6.78740 34563 ft 468 kts 114°
2026-05-08 03:26 62.43901 -6.65664 34566 ft 468 kts 114°
2026-05-08 03:26 62.41507 -6.52619 34555 ft 467 kts 115°
2026-05-08 03:27 62.39102 -6.39597 34576 ft 467 kts 115°
2026-05-08 03:27 62.36684 -6.26598 34570 ft 467 kts 115°
2026-05-08 03:28 62.34251 -6.13615 34576 ft 468 kts 116°
2026-05-08 03:28 62.31805 -6.00654 34581 ft 467 kts 116°
2026-05-08 03:29 62.29351 -5.87708 34581 ft 467 kts 116°
2026-05-08 03:29 62.26894 -5.74842 34582 ft 468 kts 116°
2026-05-08 03:30 62.23176 -5.55551 34590 ft 466 kts 116°
2026-05-08 03:31 62.18206 -5.29878 34600 ft 466 kts 117°
2026-05-08 03:32 62.14429 -5.10708 34613 ft 466 kts 117°
2026-05-08 03:32 62.11895 -4.97941 34589 ft 468 kts 118°
2026-05-08 03:33 62.09333 -4.85133 34616 ft 469 kts 118°
2026-05-08 03:33 62.06769 -4.72345 34623 ft 469 kts 118°
2026-05-08 03:34 62.04189 -4.59577 34637 ft 469 kts 118°
2026-05-08 03:34 62.01613 -4.46924 34636 ft 469 kts 118°
2026-05-08 03:35 61.99008 -4.34196 34638 ft 468 kts 118°
2026-05-08 03:35 61.96405 -4.21568 34639 ft 463 kts 119°
2026-05-08 03:36 61.93808 -4.09037 34646 ft 463 kts 119°
2026-05-08 03:36 61.91202 -3.96527 34665 ft 463 kts 119°
2026-05-08 03:37 61.88583 -3.84050 34668 ft 463 kts 119°
2026-05-08 03:37 61.85954 -3.71594 34677 ft 463 kts 120°
2026-05-08 03:38 61.83311 -3.59160 34680 ft 463 kts 120°
2026-05-08 03:38 61.80679 -3.46843 34669 ft 459 kts 121°
2026-05-08 03:39 61.78043 -3.34569 34694 ft 459 kts 121°
2026-05-08 03:39 61.75391 -3.22302 34697 ft 459 kts 121°
2026-05-08 03:40 61.72732 -3.10068 34710 ft 459 kts 121°
2026-05-08 03:40 61.70062 -2.97846 34713 ft 458 kts 121°
2026-05-08 03:41 61.67380 -2.85666 34714 ft 458 kts 121°
2026-05-08 03:41 61.64695 -2.73510 34711 ft 457 kts 122°
2026-05-08 03:42 61.61995 -2.61398 34727 ft 457 kts 122°
2026-05-08 03:42 61.59289 -2.49288 34740 ft 457 kts 122°
2026-05-08 03:43 61.56570 -2.37222 34741 ft 457 kts 122°
2026-05-08 03:43 61.53839 -2.25174 34764 ft 457 kts 122°
2026-05-08 03:44 61.51123 -2.13215 34764 ft 457 kts 122°
2026-05-08 03:44 61.48371 -2.01189 34749 ft 459 kts 122°
2026-05-08 03:45 61.45607 -1.89178 34770 ft 457 kts 122°
2026-05-08 03:45 61.43301 -1.79204 34776 ft 457 kts 122°
2026-05-08 03:46 61.40523 -1.67247 34789 ft 457 kts 122°
2026-05-08 03:46 61.37736 -1.55319 34789 ft 457 kts 122°
2026-05-08 03:47 61.34929 -1.43422 34791 ft 457 kts 122°
2026-05-08 03:47 61.32115 -1.31541 34782 ft 458 kts 123°
2026-05-08 03:48 61.29292 -1.19701 34804 ft 456 kts 123°
2026-05-08 03:48 61.26467 -1.07867 34820 ft 456 kts 123°
2026-05-08 03:49 61.23633 -0.96077 34822 ft 456 kts 123°
2026-05-08 03:49 61.20790 -0.84298 34826 ft 456 kts 123°
2026-05-08 03:50 61.17935 -0.72550 34837 ft 456 kts 123°
2026-05-08 03:50 61.15072 -0.60832 34838 ft 456 kts 123°
2026-05-08 03:51 61.12214 -0.49202 34854 ft 456 kts 123°
2026-05-08 03:51 61.09333 -0.37533 34855 ft 456 kts 123°
2026-05-08 03:52 61.06441 -0.25870 34855 ft 456 kts 124°
2026-05-08 03:52 61.03537 -0.14219 34843 ft 455 kts 124°
2026-05-08 03:53 61.00526 -0.02829 34850 ft 448 kts 131°
2026-05-08 03:53 60.96286 0.06173 34874 ft 434 kts 148°
2026-05-08 03:54 60.91495 0.13754 34872 ft 434 kts 148°
2026-05-08 03:54 60.86716 0.21347 34874 ft 434 kts 148°
2026-05-08 03:55 60.81973 0.28912 34883 ft 434 kts 148°
2026-05-08 03:55 60.77200 0.36510 34887 ft 434 kts 148°
2026-05-08 03:56 60.72427 0.44074 34881 ft 433 kts 148°
2026-05-08 03:56 60.67654 0.51593 34888 ft 433 kts 148°
2026-05-08 03:57 60.62882 0.59108 34908 ft 433 kts 148°
2026-05-08 03:57 60.58104 0.66596 34909 ft 433 kts 148°
2026-05-08 03:58 60.53324 0.74043 34893 ft 431 kts 149°
2026-05-08 03:58 60.48563 0.81453 34925 ft 432 kts 149°
2026-05-08 03:59 60.43784 0.88856 34917 ft 431 kts 149°
2026-05-08 03:59 60.39028 0.96193 34927 ft 430 kts 149°
2026-05-08 04:00 60.34291 1.03455 34929 ft 430 kts 149°
2026-05-08 04:00 60.29528 1.10759 34946 ft 430 kts 149°
2026-05-08 04:01 60.24760 1.18028 34949 ft 430 kts 149°
2026-05-08 04:01 60.19979 1.25292 34949 ft 430 kts 149°
2026-05-08 04:02 60.15207 1.32514 34938 ft 429 kts 149°
2026-05-08 04:02 60.10446 1.39701 34947 ft 426 kts 149°
2026-05-08 04:03 60.05730 1.46782 34961 ft 426 kts 149°
2026-05-08 04:03 59.98614 1.57437 34971 ft 426 kts 150°
2026-05-08 04:04 59.93856 1.64515 34985 ft 426 kts 150°
2026-05-08 04:04 59.89099 1.71570 34994 ft 426 kts 150°
2026-05-08 04:05 59.84342 1.78613 34977 ft 425 kts 149°
2026-05-08 04:05 59.79595 1.85604 35001 ft 425 kts 149°
2026-05-08 04:06 59.74841 1.92573 35006 ft 425 kts 150°
2026-05-08 04:06 59.70088 1.99514 34985 ft 426 kts 149°
2026-05-08 04:07 59.65308 2.06487 35007 ft 427 kts 149°
2026-05-08 04:07 59.60551 2.13397 35014 ft 427 kts 150°
2026-05-08 04:08 59.55765 2.20318 35010 ft 426 kts 149°
2026-05-08 04:08 59.50978 2.27220 35020 ft 426 kts 149°
2026-05-08 04:09 59.46186 2.34098 35023 ft 426 kts 149°
2026-05-08 04:09 59.41392 2.40962 35031 ft 426 kts 149°
2026-05-08 04:10 59.36595 2.47803 35032 ft 426 kts 150°
2026-05-08 04:10 59.31793 2.54616 35020 ft 426 kts 150°
2026-05-08 04:11 59.27016 2.61376 35020 ft 428 kts 149°
2026-05-08 04:11 59.22178 2.68205 35037 ft 429 kts 149°
2026-05-08 04:12 59.17338 2.75011 35039 ft 429 kts 149°
2026-05-08 04:12 59.12484 2.81806 35071 ft 429 kts 149°
2026-05-08 04:13 59.07631 2.88581 35072 ft 429 kts 149°
2026-05-08 04:13 59.02776 2.95329 35073 ft 429 kts 149°
2026-05-08 04:14 58.97953 3.02014 35066 ft 428 kts 149°
2026-05-08 04:14 58.93101 3.08710 35090 ft 428 kts 149°
2026-05-08 04:15 58.88255 3.15378 35094 ft 428 kts 149°
2026-05-08 04:15 58.83385 3.22061 35084 ft 431 kts 149°
2026-05-08 04:16 58.78488 3.28751 35101 ft 431 kts 149°
2026-05-08 04:16 58.73585 3.35433 35105 ft 431 kts 149°
2026-05-08 04:17 58.68678 3.42084 35107 ft 431 kts 149°
2026-05-08 04:17 58.63766 3.48722 35110 ft 431 kts 149°
2026-05-08 04:18 58.58851 3.55327 35117 ft 431 kts 149°
2026-05-08 04:18 58.53930 3.61915 35118 ft 431 kts 149°
2026-05-08 04:19 58.49000 3.68510 35119 ft 431 kts 149°
2026-05-08 04:19 58.44109 3.75037 35110 ft 432 kts 149°
2026-05-08 04:20 58.39163 3.81615 35120 ft 433 kts 149°
2026-05-08 04:20 58.34217 3.88174 35124 ft 433 kts 149°
2026-05-08 04:21 58.29262 3.94711 35133 ft 433 kts 149°
2026-05-08 04:21 58.24303 4.01235 35137 ft 433 kts 149°
2026-05-08 04:22 58.19343 4.07740 35142 ft 433 kts 149°
2026-05-08 04:22 58.14380 4.14220 35144 ft 433 kts 149°
2026-05-08 04:23 58.09423 4.20663 35147 ft 431 kts 149°
2026-05-08 04:23 58.04501 4.27052 35146 ft 431 kts 149°
2026-05-08 04:24 57.99544 4.33463 35140 ft 432 kts 149°
2026-05-08 04:24 57.94581 4.39853 35154 ft 433 kts 149°
2026-05-08 04:25 57.89611 4.46240 35155 ft 433 kts 149°
2026-05-08 04:25 57.84633 4.52610 35156 ft 433 kts 149°
2026-05-08 04:26 57.79659 4.58953 35158 ft 432 kts 149°
2026-05-08 04:26 57.74693 4.65266 35166 ft 432 kts 149°
2026-05-08 04:27 57.69720 4.71563 35166 ft 432 kts 149°
2026-05-08 04:27 57.64772 4.77798 35166 ft 432 kts 149°
2026-05-08 04:28 57.59789 4.84069 35158 ft 432 kts 148°
2026-05-08 04:28 57.54793 4.90338 35172 ft 433 kts 148°
2026-05-08 04:29 57.49781 4.96552 35171 ft 432 kts 150°
2026-05-08 04:29 57.44670 5.02435 35167 ft 432 kts 150°
2026-05-08 04:30 57.39553 5.08277 35175 ft 432 kts 150°
2026-05-08 04:30 57.34428 5.14113 35178 ft 432 kts 150°
2026-05-08 04:31 57.29304 5.19928 35181 ft 432 kts 150°
2026-05-08 04:31 57.24182 5.25728 35183 ft 431 kts 150°
2026-05-08 04:32 57.19058 5.31501 35180 ft 431 kts 150°
2026-05-08 04:32 57.14796 5.36290 35185 ft 431 kts 150°
2026-05-08 04:33 57.09668 5.42025 35184 ft 431 kts 150°
2026-05-08 04:33 57.04534 5.47755 35189 ft 431 kts 150°
2026-05-08 04:34 56.99402 5.53473 35186 ft 431 kts 150°
2026-05-08 04:34 56.94271 5.59165 35186 ft 431 kts 150°
2026-05-08 04:35 56.89139 5.64846 35192 ft 431 kts 150°
2026-05-08 04:35 56.84003 5.70508 35184 ft 431 kts 150°
2026-05-08 04:36 56.78901 5.76120 35183 ft 431 kts 150°
2026-05-08 04:36 56.73762 5.81751 35187 ft 431 kts 150°
2026-05-08 04:37 56.68610 5.87380 35186 ft 432 kts 150°
2026-05-08 04:37 56.63448 5.92992 35193 ft 432 kts 150°
2026-05-08 04:38 56.58283 5.98597 35192 ft 432 kts 150°
2026-05-08 04:38 56.53156 6.04140 35197 ft 432 kts 150°
2026-05-08 04:39 56.47991 6.09707 35197 ft 432 kts 150°
2026-05-08 04:39 56.42827 6.15256 35195 ft 432 kts 150°
2026-05-08 04:40 56.37662 6.20783 35194 ft 431 kts 150°
2026-05-08 04:40 56.32491 6.26308 35197 ft 431 kts 150°
2026-05-08 04:41 56.27330 6.31805 35188 ft 431 kts 150°
2026-05-08 04:41 56.22141 6.37305 35197 ft 433 kts 150°
2026-05-08 04:42 56.16954 6.42791 35198 ft 433 kts 150°
2026-05-08 04:42 56.11794 6.48230 35199 ft 433 kts 150°
2026-05-08 04:43 56.06603 6.53686 35197 ft 432 kts 150°
2026-05-08 04:43 56.01415 6.59120 35200 ft 432 kts 150°
2026-05-08 04:44 55.96224 6.64543 35201 ft 432 kts 150°
2026-05-08 04:44 55.91024 6.69955 35197 ft 432 kts 150°
2026-05-08 04:45 55.85824 6.75350 35196 ft 432 kts 150°
2026-05-08 04:45 55.80617 6.80727 35194 ft 433 kts 150°
2026-05-08 04:46 55.75396 6.86122 35198 ft 434 kts 150°
2026-05-08 04:46 55.70209 6.91454 35198 ft 434 kts 150°
2026-05-08 04:47 55.64976 6.96816 35198 ft 434 kts 150°
2026-05-08 04:47 55.59747 7.02160 35198 ft 434 kts 150°
2026-05-08 04:48 55.54518 7.07485 35198 ft 433 kts 150°
2026-05-08 04:48 55.49293 7.12789 35197 ft 433 kts 150°
2026-05-08 04:49 55.44063 7.18079 35197 ft 433 kts 150°
2026-05-08 04:49 55.38835 7.23358 35191 ft 434 kts 150°
2026-05-08 04:50 55.33586 7.28640 35190 ft 435 kts 150°
2026-05-08 04:50 55.28320 7.33920 35196 ft 436 kts 150°
2026-05-08 04:51 55.23036 7.39203 35191 ft 437 kts 150°
2026-05-08 04:51 55.17780 7.44437 35194 ft 437 kts 150°
2026-05-08 04:52 55.12492 7.49691 35196 ft 437 kts 150°
2026-05-08 04:52 55.07205 7.54930 35195 ft 437 kts 150°
2026-05-08 04:53 55.01908 7.60153 35199 ft 438 kts 150°
2026-05-08 04:53 54.96507 7.65157 35187 ft 440 kts 153°
2026-05-08 04:54 54.91033 7.70011 35193 ft 441 kts 153°
2026-05-08 04:54 54.85563 7.74851 35194 ft 441 kts 153°
2026-05-08 04:55 54.80081 7.79692 35200 ft 441 kts 153°
2026-05-08 04:55 54.74607 7.84504 35197 ft 442 kts 154°
2026-05-08 04:56 54.69115 7.89318 35196 ft 447 kts 154°
2026-05-08 04:56 54.63563 7.94174 35196 ft 447 kts 154°
2026-05-08 04:57 54.58013 7.99013 35194 ft 446 kts 154°
2026-05-08 04:57 54.52467 8.03831 35197 ft 446 kts 154°
2026-05-08 04:58 54.46919 8.08635 35194 ft 447 kts 154°
2026-05-08 04:58 54.41338 8.13453 35201 ft 450 kts 154°
2026-05-08 04:59 54.35740 8.18276 35187 ft 450 kts 154°
2026-05-08 04:59 54.30139 8.23076 35196 ft 449 kts 155°
2026-05-08 05:00 54.24557 8.27854 35196 ft 448 kts 155°
2026-05-08 05:00 54.18969 8.32621 35192 ft 450 kts 155°
2026-05-08 05:01 54.13372 8.37378 35198 ft 452 kts 155°
2026-05-08 05:01 54.07734 8.42163 35192 ft 453 kts 155°
2026-05-08 05:02 54.02093 8.46930 35186 ft 453 kts 155°
2026-05-08 05:02 53.96441 8.51692 35193 ft 454 kts 155°
2026-05-08 05:03 53.90770 8.56459 35195 ft 456 kts 155°
2026-05-08 05:03 53.85076 8.61227 35202 ft 456 kts 155°
2026-05-08 05:04 53.79382 8.65982 35201 ft 456 kts 155°
2026-05-08 05:04 53.73677 8.70724 35202 ft 456 kts 155°
2026-05-08 05:05 53.68018 8.75427 35199 ft 456 kts 155°
2026-05-08 05:05 53.62310 8.80149 35194 ft 458 kts 155°
2026-05-08 05:06 53.56582 8.84877 35182 ft 458 kts 155°
2026-05-08 05:06 53.50856 8.89586 35176 ft 458 kts 155°
2026-05-08 05:07 53.45129 8.94284 35176 ft 458 kts 155°
2026-05-08 05:07 53.39390 8.98966 35156 ft 458 kts 155°
2026-05-08 05:08 53.33640 9.03661 35166 ft 460 kts 156°
2026-05-08 05:08 53.27884 9.08341 35172 ft 460 kts 156°
2026-05-08 05:09 53.22158 9.12979 35172 ft 460 kts 156°
2026-05-08 05:09 53.16365 9.17658 35168 ft 460 kts 156°
2026-05-08 05:10 53.07725 9.24605 35168 ft 459 kts 156°
2026-05-08 05:11 53.02002 9.29200 35174 ft 459 kts 156°
2026-05-08 05:11 52.96239 9.33800 35169 ft 459 kts 156°
2026-05-08 05:12 52.90474 9.38392 35168 ft 459 kts 156°
2026-05-08 05:12 52.84705 9.42970 35162 ft 461 kts 156°
2026-05-08 05:13 52.78923 9.47556 35167 ft 461 kts 156°
2026-05-08 05:13 52.73132 9.52130 35168 ft 461 kts 156°
2026-05-08 05:14 52.67340 9.56687 35168 ft 461 kts 156°
2026-05-08 05:14 52.61540 9.61239 35158 ft 461 kts 156°
2026-05-08 05:15 52.55738 9.65791 35171 ft 463 kts 156°
2026-05-08 05:15 52.49916 9.70337 35170 ft 463 kts 156°
2026-05-08 05:16 52.44132 9.74838 35171 ft 463 kts 156°
2026-05-08 05:16 52.38312 9.79354 35171 ft 463 kts 156°
2026-05-08 05:17 52.32477 9.83866 35164 ft 464 kts 157°
2026-05-08 05:17 52.26629 9.88380 35165 ft 464 kts 157°
2026-05-08 05:18 52.20784 9.92878 35161 ft 464 kts 157°
2026-05-08 05:18 52.15926 9.96606 35162 ft 464 kts 157°
2026-05-08 05:19 52.09131 10.01804 35153 ft 464 kts 157°
2026-05-08 05:19 52.04221 10.05551 35156 ft 465 kts 157°
2026-05-08 05:20 51.98357 10.10015 35156 ft 465 kts 157°
2026-05-08 05:20 51.92536 10.14429 35157 ft 465 kts 157°
2026-05-08 05:21 51.86662 10.18869 35157 ft 466 kts 157°
2026-05-08 05:21 51.80791 10.23299 35152 ft 466 kts 157°
2026-05-08 05:22 51.74897 10.27730 35152 ft 467 kts 157°
2026-05-08 05:22 51.69009 10.32147 35153 ft 466 kts 158°
2026-05-08 05:23 51.63114 10.36553 35150 ft 466 kts 158°
2026-05-08 05:23 51.57225 10.40944 35139 ft 467 kts 158°
2026-05-08 05:24 51.51331 10.45326 35148 ft 467 kts 158°
2026-05-08 05:24 51.45426 10.49678 35152 ft 466 kts 160°
2026-05-08 05:25 51.39296 10.52960 35153 ft 464 kts 165°
2026-05-08 05:25 51.33120 10.56006 35137 ft 464 kts 165°
2026-05-08 05:26 51.26982 10.59051 35148 ft 465 kts 165°
2026-05-08 05:26 51.20805 10.62118 35149 ft 465 kts 165°
2026-05-08 05:27 51.14626 10.65181 35147 ft 465 kts 165°
2026-05-08 05:27 51.08447 10.68226 35131 ft 465 kts 166°
2026-05-08 05:28 51.02266 10.71266 35141 ft 464 kts 166°
2026-05-08 05:28 50.96095 10.74297 35144 ft 465 kts 166°
2026-05-08 05:29 50.89922 10.77321 35141 ft 465 kts 166°
2026-05-08 05:29 50.83743 10.80335 35143 ft 465 kts 166°
2026-05-08 05:30 50.77572 10.83330 35140 ft 464 kts 166°
2026-05-08 05:30 50.71386 10.86328 35143 ft 465 kts 166°
2026-05-08 05:31 50.65203 10.89324 35144 ft 465 kts 166°
2026-05-08 05:31 50.59020 10.92304 35138 ft 465 kts 166°
2026-05-08 05:32 50.52829 10.95276 35131 ft 465 kts 166°
2026-05-08 05:32 50.46649 10.98239 35133 ft 465 kts 166°
2026-05-08 05:33 50.40466 11.01199 35131 ft 464 kts 166°
2026-05-08 05:33 50.34278 11.04151 35117 ft 465 kts 166°
2026-05-08 05:34 50.28138 11.07074 35118 ft 464 kts 166°
2026-05-08 05:34 50.21959 11.10005 35117 ft 464 kts 166°
2026-05-08 05:35 50.15769 11.12933 35124 ft 465 kts 166°
2026-05-08 05:35 50.09576 11.15857 35115 ft 464 kts 166°
2026-05-08 05:36 50.03386 11.18771 35113 ft 464 kts 166°
2026-05-08 05:36 49.97194 11.21683 35116 ft 464 kts 166°
2026-05-08 05:37 49.91041 11.24564 35109 ft 464 kts 166°
2026-05-08 05:37 49.84845 11.27454 35094 ft 464 kts 166°
2026-05-08 05:38 49.78655 11.30337 35106 ft 464 kts 167°
2026-05-08 05:38 49.72473 11.33208 35108 ft 464 kts 166°
2026-05-08 05:39 49.66284 11.36077 35105 ft 465 kts 167°
2026-05-08 05:39 49.60084 11.38940 35093 ft 465 kts 167°
2026-05-08 05:40 49.53825 11.41171 35108 ft 459 kts 176°
2026-05-08 05:40 49.47475 11.42247 35112 ft 459 kts 178°
2026-05-08 05:41 49.41121 11.43308 35110 ft 459 kts 177°
2026-05-08 05:41 49.34769 11.44385 35115 ft 459 kts 178°
2026-05-08 05:42 49.28456 11.45460 35118 ft 459 kts 178°
2026-05-08 05:42 49.22104 11.46542 35119 ft 459 kts 178°
2026-05-08 05:43 49.15744 11.47615 35100 ft 459 kts 178°
2026-05-08 05:43 49.09400 11.48687 35105 ft 459 kts 178°
2026-05-08 05:44 49.03045 11.49747 35104 ft 459 kts 178°
2026-05-08 05:44 48.96704 11.50811 35098 ft 459 kts 178°
2026-05-08 05:45 48.90353 11.51882 35103 ft 458 kts 178°
2026-05-08 05:45 48.84009 11.52942 35108 ft 458 kts 178°
2026-05-08 05:46 48.77699 11.53996 35113 ft 458 kts 178°
2026-05-08 05:46 48.71364 11.55052 35101 ft 458 kts 178°
2026-05-08 05:47 48.65048 11.56100 35108 ft 457 kts 178°
2026-05-08 05:47 48.58735 11.57139 35110 ft 456 kts 178°
2026-05-08 05:48 48.52416 11.58178 35102 ft 456 kts 178°
2026-05-08 05:48 48.46103 11.59221 35097 ft 454 kts 178°
2026-05-08 05:49 48.39832 11.60250 35107 ft 453 kts 178°
2026-05-08 05:49 48.33554 11.61279 35111 ft 453 kts 178°
2026-05-08 05:50 48.27279 11.62304 35107 ft 453 kts 178°
2026-05-08 05:50 48.21002 11.63329 35097 ft 454 kts 178°
2026-05-08 05:51 48.14722 11.64344 35096 ft 454 kts 178°
2026-05-08 05:51 48.08433 11.65369 35088 ft 454 kts 178°
2026-05-08 05:52 48.02171 11.66380 35082 ft 453 kts 178°
2026-05-08 05:52 47.95916 11.67388 35090 ft 452 kts 178°
2026-05-08 05:53 47.89695 11.68392 35087 ft 452 kts 178°
2026-05-08 05:53 47.83428 11.69400 35074 ft 452 kts 178°
2026-05-08 05:54 47.77201 11.70400 35085 ft 449 kts 178°
2026-05-08 05:54 47.70984 11.71388 35088 ft 449 kts 178°
2026-05-08 05:55 47.64765 11.72380 35088 ft 449 kts 178°
2026-05-08 05:55 47.58558 11.73368 35086 ft 447 kts 178°
2026-05-08 05:56 47.52377 11.74347 35083 ft 446 kts 178°
2026-05-08 05:56 47.46204 11.75328 35079 ft 447 kts 178°
2026-05-08 05:57 47.40016 11.76304 35081 ft 447 kts 179°
2026-05-08 05:57 47.33881 11.76862 35090 ft 441 kts 186°
2026-05-08 05:58 47.27755 11.76519 35099 ft 440 kts 187°
2026-05-08 05:58 47.21631 11.76160 35097 ft 440 kts 187°
2026-05-08 05:59 47.15509 11.75821 35100 ft 439 kts 187°
2026-05-08 05:59 47.09395 11.75484 35097 ft 439 kts 187°
2026-05-08 06:00 47.03289 11.75164 35091 ft 439 kts 187°
2026-05-08 06:00 46.97184 11.74834 35098 ft 438 kts 187°
2026-05-08 06:01 46.91116 11.74500 35102 ft 436 kts 187°
2026-05-08 06:01 46.85086 11.74171 35112 ft 437 kts 187°
2026-05-08 06:02 46.79012 11.73841 35096 ft 436 kts 187°
2026-05-08 06:02 46.72968 11.73513 35096 ft 433 kts 187°
2026-05-08 06:03 46.66936 11.73185 35105 ft 433 kts 187°
2026-05-08 06:03 46.60920 11.72859 35094 ft 433 kts 187°
2026-05-08 06:04 46.54899 11.72527 35098 ft 431 kts 188°
2026-05-08 06:04 46.49925 11.72246 35113 ft 430 kts 188°
2026-05-08 06:05 46.43931 11.71910 35106 ft 431 kts 188°
2026-05-08 06:05 46.37930 11.71575 35099 ft 430 kts 188°
2026-05-08 06:06 46.31966 11.71208 35105 ft 428 kts 188°
2026-05-08 06:06 46.26020 11.70832 35094 ft 427 kts 188°
2026-05-08 06:07 46.20109 11.70469 35101 ft 428 kts 188°
2026-05-08 06:07 46.14157 11.70102 35100 ft 428 kts 188°
2026-05-08 06:08 46.08193 11.69735 35097 ft 429 kts 188°
2026-05-08 06:08 46.02238 11.69371 35098 ft 427 kts 188°
2026-05-08 06:09 45.96284 11.69004 35077 ft 428 kts 188°
2026-05-08 06:09 45.90317 11.68644 35074 ft 428 kts 188°
2026-05-08 06:10 45.84377 11.68282 35073 ft 427 kts 188°
2026-05-08 06:10 45.78447 11.67919 35066 ft 427 kts 188°
2026-05-08 06:11 45.72516 11.67561 35048 ft 426 kts 188°
2026-05-08 06:11 45.66633 11.67205 35052 ft 425 kts 188°
2026-05-08 06:12 45.60714 11.66848 35062 ft 426 kts 188°
2026-05-08 06:12 45.54802 11.66489 35057 ft 425 kts 187°
2026-05-08 06:13 45.48903 11.66135 35072 ft 424 kts 187°
2026-05-08 06:13 45.43004 11.65780 35076 ft 424 kts 187°
2026-05-08 06:14 45.37101 11.65426 35070 ft 424 kts 187°
2026-05-08 06:14 45.31205 11.65077 35076 ft 424 kts 187°
2026-05-08 06:15 45.25299 11.64726 35067 ft 425 kts 187°
2026-05-08 06:15 45.19420 11.64376 35075 ft 425 kts 187°
2026-05-08 06:16 45.13502 11.64015 35078 ft 425 kts 187°
2026-05-08 06:16 45.07587 11.63567 35066 ft 425 kts 187°
2026-05-08 06:17 44.98720 11.62905 35062 ft 425 kts 187°
2026-05-08 06:17 44.92801 11.62472 35062 ft 425 kts 187°
2026-05-08 06:18 44.86889 11.62038 35062 ft 425 kts 187°
2026-05-08 06:18 44.80969 11.61650 35065 ft 427 kts 185°
2026-05-08 06:19 44.75067 11.61682 35054 ft 426 kts 184°
2026-05-08 06:19 44.69133 11.61742 35060 ft 426 kts 184°
2026-05-08 06:20 44.63206 11.61796 35060 ft 426 kts 184°
2026-05-08 06:20 44.57275 11.61848 35055 ft 425 kts 184°
2026-05-08 06:21 44.51362 11.61899 35061 ft 425 kts 184°
2026-05-08 06:21 44.45451 11.61952 35063 ft 425 kts 184°
2026-05-08 06:22 44.39540 11.62002 35051 ft 425 kts 184°
2026-05-08 06:22 44.33630 11.62054 35062 ft 424 kts 184°
2026-05-08 06:23 44.27710 11.62106 35062 ft 424 kts 184°
2026-05-08 06:23 44.21840 11.62154 35061 ft 425 kts 184°
2026-05-08 06:24 44.15927 11.62210 35053 ft 425 kts 184°
2026-05-08 06:24 44.10019 11.62260 35054 ft 425 kts 184°
2026-05-08 06:25 44.04102 11.62334 35044 ft 426 kts 181°
2026-05-08 06:25 44.01154 11.63026 35017 ft 434 kts 168°
2026-05-08 06:25 43.98366 11.64727 35028 ft 443 kts 155°
2026-05-08 06:26 43.93115 11.69280 35011 ft 446 kts 153°
2026-05-08 06:26 43.87837 11.73837 35015 ft 447 kts 153°
2026-05-08 06:27 43.82528 11.78346 35019 ft 447 kts 154°
2026-05-08 06:27 43.77104 11.82477 35011 ft 441 kts 164°
2026-05-08 06:28 43.71230 11.84595 35004 ft 436 kts 172°
2026-05-08 06:28 43.65311 11.86421 34996 ft 436 kts 171°
2026-05-08 06:29 43.59402 11.88292 34981 ft 436 kts 171°
2026-05-08 06:29 43.53478 11.90170 34987 ft 437 kts 171°
2026-05-08 06:30 43.47547 11.92034 34984 ft 437 kts 171°
2026-05-08 06:30 43.44599 11.92968 34754 ft 433 kts 171°
2026-05-08 06:30 43.41647 11.93764 33687 ft 432 kts 175°
2026-05-08 06:31 43.38671 11.94364 32311 ft 436 kts 175°
2026-05-08 06:31 43.35650 11.94953 30874 ft 442 kts 175°
2026-05-08 06:31 43.32585 11.95559 29406 ft 447 kts 174°
2026-05-08 06:31 43.29499 11.96187 28012 ft 448 kts 174°
2026-05-08 06:32 43.26415 11.96816 26611 ft 448 kts 174°
2026-05-08 06:32 43.23311 11.97448 25191 ft 454 kts 174°
2026-05-08 06:32 43.20168 11.98091 23898 ft 457 kts 173°
2026-05-08 06:32 43.17028 11.98732 22581 ft 456 kts 173°
2026-05-08 06:33 43.13884 11.99373 21373 ft 457 kts 173°
2026-05-08 06:33 43.10762 12.00009 20719 ft 450 kts 173°
2026-05-08 06:33 43.07673 12.00638 20155 ft 447 kts 172°
2026-05-08 06:33 43.04634 12.01259 19565 ft 436 kts 172°
2026-05-08 06:34 43.01666 12.01864 18968 ft 427 kts 172°
2026-05-08 06:34 42.98790 12.02446 18391 ft 420 kts 172°
2026-05-08 06:34 42.95909 12.03029 17676 ft 417 kts 171°
2026-05-08 06:34 42.93055 12.03605 17012 ft 413 kts 171°
2026-05-08 06:35 42.90229 12.04175 16418 ft 408 kts 171°
2026-05-08 06:35 42.87439 12.04742 15851 ft 402 kts 171°
2026-05-08 06:35 42.84690 12.05303 15322 ft 397 kts 171°
2026-05-08 06:35 42.81970 12.05850 14785 ft 395 kts 171°
2026-05-08 06:36 42.79252 12.06392 14322 ft 393 kts 171°
2026-05-08 06:36 42.76544 12.06936 13898 ft 392 kts 171°
2026-05-08 06:36 42.73844 12.07479 13435 ft 391 kts 171°
2026-05-08 06:36 42.71163 12.08021 12895 ft 388 kts 171°
2026-05-08 06:37 42.68502 12.08554 12343 ft 385 kts 171°
2026-05-08 06:37 42.65867 12.09082 11852 ft 377 kts 171°
2026-05-08 06:37 42.63321 12.09595 11537 ft 362 kts 171°
2026-05-08 06:37 42.60879 12.10085 11294 ft 347 kts 171°
2026-05-08 06:38 42.58578 12.10546 11099 ft 332 kts 171°
2026-05-08 06:38 42.56347 12.10988 10907 ft 317 kts 171°
2026-05-08 06:38 42.54209 12.11413 10702 ft 304 kts 171°
2026-05-08 06:38 42.52150 12.11823 10320 ft 299 kts 171°
2026-05-08 06:39 42.50093 12.12236 9837 ft 298 kts 171°
2026-05-08 06:39 42.48053 12.12644 9370 ft 295 kts 171°
2026-05-08 06:39 42.46035 12.13047 8941 ft 291 kts 171°
2026-05-08 06:39 42.44046 12.13446 8541 ft 286 kts 171°
2026-05-08 06:40 42.42076 12.13842 8165 ft 286 kts 171°
2026-05-08 06:40 42.40111 12.14236 7801 ft 285 kts 171°
2026-05-08 06:40 42.38156 12.14624 7457 ft 284 kts 171°
2026-05-08 06:40 42.36203 12.15013 7089 ft 283 kts 171°
2026-05-08 06:41 42.34254 12.15401 6720 ft 281 kts 171°
2026-05-08 06:41 42.32332 12.15781 6351 ft 277 kts 172°
2026-05-08 06:41 42.30436 12.16156 5955 ft 273 kts 172°
2026-05-08 06:41 42.28567 12.16527 5612 ft 270 kts 171°
2026-05-08 06:42 42.26712 12.16895 5277 ft 268 kts 171°
2026-05-08 06:42 42.24878 12.17256 4977 ft 264 kts 171°
2026-05-08 06:42 42.23073 12.17628 4799 ft 263 kts 171°
2026-05-08 06:42 42.21257 12.18008 4763 ft 264 kts 171°
2026-05-08 06:43 42.19435 12.18382 4821 ft 265 kts 171°
2026-05-08 06:43 42.17618 12.18749 4888 ft 264 kts 171°
2026-05-08 06:43 42.15806 12.19106 4776 ft 263 kts 172°
2026-05-08 06:43 42.13983 12.19056 4544 ft 263 kts 191°
2026-05-08 06:44 42.12199 12.18510 4302 ft 263 kts 192°
2026-05-08 06:44 42.10449 12.17958 3988 ft 259 kts 192°
2026-05-08 06:44 42.08699 12.17416 3814 ft 250 kts 191°
2026-05-08 06:44 42.07047 12.17056 3667 ft 238 kts 179°
2026-05-08 06:45 42.05451 12.17296 3531 ft 225 kts 166°
2026-05-08 06:45 42.04010 12.17951 3367 ft 213 kts 157°
2026-05-08 06:45 42.02644 12.18562 3214 ft 203 kts 160°
2026-05-08 06:45 42.01299 12.19141 2709 ft 204 kts 161°
2026-05-08 06:46 41.99947 12.19712 2504 ft 204 kts 161°
2026-05-08 06:46 41.98599 12.20279 2472 ft 201 kts 161°
2026-05-08 06:46 41.97355 12.20801 2480 ft 173 kts 160°
2026-05-08 06:46 41.96285 12.21250 2387 ft 149 kts 160°
2026-05-08 06:47 41.95365 12.21636 2200 ft 132 kts 162°
2026-05-08 06:47 41.94496 12.22001 2037 ft 130 kts 163°
2026-05-08 06:47 41.93631 12.22365 1875 ft 130 kts 162°
2026-05-08 06:47 41.92767 12.22729 1710 ft 130 kts 162°
2026-05-08 06:48 41.91905 12.23093 1515 ft 130 kts 162°
2026-05-08 06:48 41.91049 12.23451 1372 ft 131 kts 162°
2026-05-08 06:48 41.90180 12.23808 1243 ft 131 kts 162°
2026-05-08 06:48 41.89314 12.24173 1070 ft 131 kts 162°
2026-05-08 06:49 41.88440 12.24542 862 ft 132 kts 162°
2026-05-08 06:49 41.87844 12.24793 723 ft 134 kts 162°
2026-05-08 06:49 41.86956 12.25162 572 ft 136 kts 162°
2026-05-08 06:49 41.86049 12.25539 400 ft 137 kts 161°
2026-05-08 06:50 41.85137 12.25928 200 ft 138 kts 161°
2026-05-08 06:50 41.84220 12.26310 41 ft 136 kts 161°
2026-05-08 06:50 41.83369 12.26666 18 ft 115 kts 162°
2026-05-08 06:50 41.82799 12.26905 19 ft 57 kts 162°
2026-05-08 06:51 41.82475 12.27040 16 ft 46 kts 162°
2026-05-08 06:51 41.82179 12.27135 16 ft 40 kts 175°
2026-05-08 06:51 41.81943 12.27109 16 ft 29 kts 192°
2026-05-08 06:51 41.81759 12.27052 17 ft 20 kts 187°
2026-05-08 06:52 41.81618 12.27077 17 ft 22 kts 163°
2026-05-08 06:52 41.81461 12.27141 19 ft 25 kts 162°
2026-05-08 06:52 41.81290 12.27213 17 ft 26 kts 162°
2026-05-08 06:52 41.81117 12.27285 18 ft 19 kts 162°
2026-05-08 06:53 41.80984 12.27340 18 ft 19 kts 163°
2026-05-08 06:53 41.80870 12.27342 18 ft 17 kts 190°
2026-05-08 06:53 41.80744 12.27313 18 ft 19 kts 191°
2026-05-08 06:53 41.80647 12.27191 18 ft 22 kts 250°
2026-05-08 06:54 41.80590 12.26984 18 ft 25 kts 249°
2026-05-08 06:54 41.80520 12.26737 20 ft 30 kts 250°
2026-05-08 06:54 41.80446 12.26463 21 ft 32 kts 250°
2026-05-08 06:54 41.80369 12.26183 21 ft 32 kts 250°
2026-05-08 06:55 41.80292 12.25901 19 ft 33 kts 250°
2026-05-08 06:55 41.80210 12.25606 22 ft 34 kts 249°
2026-05-08 06:55 41.80149 12.25396 21 ft 15 kts 234°
2026-05-08 06:55 41.80055 12.25338 19 ft 13 kts 194°
2026-05-08 06:56 41.79997 12.25417 21 ft 14 kts 112°
2026-05-08 06:56 41.79951 12.25547 21 ft 16 kts 116°
2026-05-08 06:56 41.79898 12.25692 19 ft 18 kts 115°
2026-05-08 06:56 41.79842 12.25788 19 ft 12 kts 181°
2026-05-08 06:57 41.79757 12.25740 20 ft 14 kts 206°
2026-05-08 06:57 41.79711 12.25701 6 ft 5 kts 257°
2026-05-08 06:57 41.79719 12.25663 19 ft 3 kts 295°
2026-05-08 06:57 41.79725 12.25646 19 ft 0 kts 295°